W9KOZ-5 Weather Reports


Display with metric or nautical units.
time (UTC)temp
F
wind
direction
speed
MPH
gust
MPH
rain 1hr
in
rain 24hr
in
rain mn
in
humidity
%
barometer
mb
20260906213750 71 151 11.0 21.0 0.00 0.00 0.00 49 723.1
20260906213022 71 176 13.0 20.0 0.00 0.00 0.00 51 723.1
20260906212521 71 163 13.0 21.0 0.00 0.00 0.00 50 723.1
20260906212020 71 158 12.0 21.0 0.00 0.00 0.00 50 723.2
20260906211747 71 164 13.0 24.0 0.00 0.00 0.00 49 723.2
20260906211020 70 163 13.0 24.0 0.00 0.00 0.00 52 723.2
20260906210519 71 175 11.0 22.0 0.00 0.00 0.00 52 723.1
20260906210019 70 137 12.0 20.0 0.00 0.00 0.00 52 723.2
20260906205520 70 128 11.0 20.0 0.00 0.00 0.00 53 723.2
20260906205239 70 161 11.0 19.0 0.00 0.00 0.00 53 723.2
20260906204515 70 128 11.0 21.0 0.00 0.00 0.00 53 723.3
20260906204013 70 154 11.0 22.0 0.00 0.00 0.00 53 723.4
20260906203513 70 130 12.0 22.0 0.00 0.00 0.00 54 723.4
20260906203234 71 162 9.0 17.0 0.00 0.00 0.00 52 723.5
20260906202514 71 178 8.0 18.0 0.00 0.00 0.00 54 723.5
20260906202013 70 146 9.0 18.0 0.00 0.00 0.00 55 723.5
20260906201956 71 121 9.0 18.0 0.00 0.00 0.00 55 723.5
20260906201014 71 153 9.0 18.0 0.00 0.00 0.00 56 723.5
20260906200514 71 165 8.0 17.0 0.00 0.00 0.00 54 723.6
20260906200232 70 172 9.0 20.0 0.00 0.00 0.00 55 723.5
20260906195509 70 128 9.0 20.0 0.00 0.00 0.00 55 723.6
20260906195010 70 154 9.0 18.0 0.00 0.00 0.00 54 723.6
20260906194510 70 194 10.0 16.0 0.00 0.00 0.00 52 723.7
20260906194009 70 158 10.0 20.0 0.00 0.00 0.00 53 723.7
20260906193509 71 188 9.0 20.0 0.00 0.00 0.00 53 723.7
20260906193010 71 178 8.0 17.0 0.00 0.00 0.00 52 723.7
20260906192510 70 136 6.0 13.0 0.00 0.00 0.00 51 723.7
20260906192010 70 106 6.0 15.0 0.00 0.00 0.00 51 723.7
20260906191509 70 188 8.0 17.0 0.00 0.00 0.00 52 723.8
20260906191009 69 181 8.0 17.0 0.00 0.00 0.00 53 723.9
20260906190510 69 131 8.0 17.0 0.00 0.00 0.00 53 723.9
20260906190009 70 167 8.0 15.0 0.00 0.00 0.00 52 723.9
20260906185509 70 145 8.0 16.0 0.00 0.00 0.00 53 723.9
20260906185011 70 144 8.0 16.0 0.00 0.00 0.00 51 724.0
20260906184510 70 159 7.0 15.0 0.00 0.00 0.00 54 724.1
20260906184454 70 133 7.0 15.0 0.00 0.00 0.00 54 724.2
20260906183733 70 194 7.0 15.0 0.00 0.00 0.00 50 724.2
20260906183008 70 191 6.0 3.0 0.00 0.00 0.00 52 724.3
20260906182133 69 178 7.0 15.0 0.00 0.00 0.00 50 724.4
20260906181849 69 234 7.0 14.0 0.00 0.00 0.00 52 724.4
20260906181133 69 145 8.0 14.0 0.00 0.00 0.00 51 724.5
20260906180634 69 150 7.0 11.0 0.00 0.00 0.00 54 724.6
20260906180133 69 163 6.0 11.0 0.00 0.00 0.00 53 724.6
20260906175900 69 186 6.0 12.0 0.00 0.00 0.00 53 724.6
20260906175129 69 239 6.0 12.0 0.00 0.00 0.00 52 724.7
20260906174630 68 152 5.0 12.0 0.00 0.00 0.00 54 724.7
20260906174129 68 179 4.0 10.0 0.00 0.00 0.00 53 724.8
20260906173630 68 208 3.0 7.0 0.00 0.00 0.00 51 724.8
20260906173129 68 63 3.0 7.0 0.00 0.00 0.00 52 724.8
20260906172630 68 75 3.0 7.0 0.00 0.00 0.00 50 724.9
20260906172355 68 112 3.0 9.0 0.00 0.00 0.00 49 724.9
20260906171629 67 80 4.0 9.0 0.00 0.00 0.00 52 724.9
20260906171130 67 110 4.0 8.0 0.00 0.00 0.00 51 724.9
20260906170849 67 92 3.0 7.0 0.00 0.00 0.00 53 724.9
20260906170126 67 115 3.0 7.0 0.00 0.00 0.00 51 724.9
20260906165625 67 148 4.0 7.0 0.00 0.00 0.00 50 724.9
20260906165125 67 100 5.0 8.0 0.00 0.00 0.00 50 724.9
20260906164625 67 117 4.0 8.0 0.00 0.00 0.00 53 724.9
20260906164126 67 86 4.0 8.0 0.00 0.00 0.00 51 724.9
20260906163625 67 71 3.0 8.0 0.00 0.00 0.00 51 724.9
20260906163125 68 115 3.0 7.0 0.00 0.00 0.00 48 724.9
20260906162626 67 132 3.0 7.0 0.00 0.00 0.00 50 724.9
20260906162121 67 104 3.0 7.0 0.00 0.00 0.00 49 724.8
20260906161621 67 94 4.0 10.0 0.00 0.00 0.00 50 724.8
20260906161122 67 43 6.0 10.0 0.00 0.00 0.00 52 724.8
20260906160622 66 68 4.0 10.0 0.00 0.00 0.00 50 724.8
20260906160121 66 82 3.0 6.0 0.00 0.00 0.00 52 724.7
20260906155622 65 9 4.0 8.0 0.00 0.00 0.00 51 724.6
20260906155122 66 61 5.0 8.0 0.00 0.00 0.00 51 724.6
20260906154622 66 74 4.0 8.0 0.00 0.00 0.00 50 724.6
20260906154122 67 59 4.0 9.0 0.00 0.00 0.00 51 724.6
20260906153621 66 88 4.0 9.0 0.00 0.00 0.00 49 724.6
20260906153123 67 110 3.0 7.0 0.00 0.00 0.00 48 724.6
20260906153055 67 80 3.0 5.0 0.00 0.00 0.00 50 724.6
20260906152340 66 80 3.0 4.0 0.00 0.00 0.00 49 724.6
20260906151621 66 53 2.0 6.0 0.00 0.00 0.00 49 724.6
20260906151120 66 27 3.0 8.0 0.00 0.00 0.00 51 724.6
20260906150621 66 103 3.0 8.0 0.00 0.00 0.00 50 724.6
20260906150119 65 115 2.0 5.0 0.00 0.00 0.00 49 724.6
20260906145619 65 45 2.0 5.0 0.00 0.00 0.00 49 724.5
20260906145113 65 9 3.0 4.0 0.00 0.00 0.00 49 724.5
20260906144614 66 40 3.0 6.0 0.00 0.00 0.00 49 724.5
20260906144112 65 82 4.0 9.0 0.00 0.00 0.00 51 724.5
20260906144055 65 97 4.0 9.0 0.00 0.00 0.00 50 724.5
20260906143339 65 88 2.0 8.0 0.00 0.00 0.00 53 724.5
20260906142613 64 49 1.0 4.0 0.00 0.00 0.00 51 724.4
20260906142348 64 308 1.0 3.0 0.00 0.00 0.00 52 724.4
20260906141613 63 5 2.0 5.0 0.00 0.00 0.00 55 724.4
20260906141336 63 44 4.0 9.0 0.00 0.00 0.00 52 724.4
20260906140609 63 55 5.0 9.0 0.00 0.00 0.00 54 724.3
20260906140109 63 44 4.0 9.0 0.00 0.00 0.00 53 724.3
20260906135834 62 40 3.0 5.0 0.00 0.00 0.00 54 724.2
20260906135108 62 13 4.0 6.0 0.00 0.00 0.00 54 724.2
20260906134609 62 355 5.0 8.0 0.00 0.00 0.00 54 724.2
20260906134110 61 344 5.0 8.0 0.00 0.00 0.00 53 724.1
20260906133912 61 355 5.0 8.0 0.00 0.00 0.00 54 724.1
20260906133816 61 346 5.0 9.0 0.00 0.00 0.00 55 724.1
20260906132605 60 355 6.0 10.0 0.00 0.00 0.00 54 724.1
20260906132104 60 355 6.0 10.0 0.00 0.00 0.00 56 724.0
20260906131604 60 355 6.0 9.0 0.00 0.00 0.00 56 723.9
20260906131103 60 333 6.0 9.0 0.00 0.00 0.00 57 723.9
20260906130603 60 332 5.0 9.0 0.00 0.00 0.00 57 723.9
20260906125603 59 329 5.0 8.0 0.00 0.00 0.00 57 723.9
20260906125104 59 348 6.0 9.0 0.00 0.00 0.00 57 723.8
20260906124602 59 350 7.0 9.0 0.00 0.00 0.00 56 723.8
20260906124100 59 343 7.0 10.0 0.00 0.00 0.00 56 723.9
20260906123559 59 350 7.0 10.0 0.00 0.00 0.00 56 723.8
20260906123058 59 341 7.0 10.0 0.00 0.00 0.00 57 723.8
20260906122549 59 5 7.0 10.0 0.00 0.00 0.00 58 723.8
20260906122050 59 0 6.0 10.0 0.00 0.00 0.00 57 723.8
20260906121549 59 346 6.0 9.0 0.00 0.00 0.00 57 723.7
20260906121314 59 355 6.0 9.0 0.00 0.00 0.00 57 723.7
20260906120548 59 345 6.0 8.0 0.00 0.00 0.00 57 723.7
20260906120050 60 346 6.0 8.0 0.00 0.00 0.00 57 723.7
20260906115549 60 341 5.0 8.0 0.00 0.00 0.00 58 723.6
20260906115047 60 340 5.0 6.0 0.00 0.00 0.00 58 723.6
20260906114546 60 355 5.0 6.0 0.00 0.00 0.00 58 723.7
20260906114046 60 355 5.0 7.0 0.00 0.00 0.00 58 723.7
20260906113545 60 355 4.0 7.0 0.00 0.00 0.00 58 723.7
20260906113044 60 5 3.0 5.0 0.00 0.00 0.00 58 723.7
20260906112544 60 342 2.0 4.0 0.00 0.00 0.00 58 723.6
20260906112040 60 332 1.0 3.0 0.00 0.00 0.00 60 723.7
20260906111801 60 291 0.0 0.0 0.00 0.00 0.00 59 723.7
20260906111038 60 291 1.0 3.0 0.00 0.00 0.00 59 723.6
20260906110536 60 291 2.0 3.0 0.00 0.00 0.00 59 723.6
20260906110256 60 285 2.0 4.0 0.00 0.00 0.00 59 723.6
20260906105534 60 314 3.0 7.0 0.00 0.00 0.00 59 723.6
20260906105032 60 313 4.0 7.0 0.00 0.00 0.00 60 723.6
20260906104533 60 319 4.0 7.0 0.00 0.00 0.00 60 723.6
20260906104033 60 314 4.0 8.0 0.00 0.00 0.00 60 723.6
20260906103528 60 309 4.0 9.0 0.00 0.00 0.00 60 723.6
20260906103028 59 327 5.0 9.0 0.00 0.00 0.00 60 723.6
20260906102527 59 329 7.0 11.0 0.00 0.00 0.00 60 723.6
20260906102026 59 322 7.0 11.0 0.00 0.00 0.00 58 723.6
20260906101526 60 342 6.0 11.0 0.00 0.00 0.00 60 723.6
20260906101027 60 336 7.0 11.0 0.00 0.00 0.00 61 723.6
20260906100527 60 0 6.0 10.0 0.00 0.00 0.00 61 723.7
20260906100244 60 0 6.0 9.0 0.00 0.00 0.00 60 723.8
20260906095528 60 346 5.0 8.0 0.00 0.00 0.00 58 723.8
20260906095245 61 349 5.0 8.0 0.00 0.00 0.00 59 723.7
20260906094523 61 10 4.0 8.0 0.00 0.00 0.00 58 723.8
20260906094025 61 21 4.0 5.0 0.00 0.00 0.00 56 723.8
20260906093744 61 44 3.0 4.0 0.00 0.00 0.00 56 723.8
20260906093022 61 49 2.0 4.0 0.00 0.00 0.00 55 723.8
20260906092523 61 59 3.0 4.0 0.00 0.00 0.00 55 723.8
20260906092023 61 101 3.0 6.0 0.00 0.00 0.00 55 723.7
20260906092008 62 107 3.0 6.0 0.00 0.00 0.00 55 723.7
20260906091023 62 113 3.0 7.0 0.00 0.00 0.00 54 723.7
20260906090740 62 119 5.0 8.0 0.00 0.00 0.00 54 723.7
20260906090020 63 134 6.0 9.0 0.00 0.00 0.00 53 723.8
20260906085520 63 164 6.0 9.0 0.00 0.00 0.00 53 723.8
20260906085254 63 153 5.0 8.0 0.00 0.00 0.00 52 723.8
20260906084519 63 158 5.0 8.0 0.00 0.00 0.00 52 723.8
20260906084018 63 176 4.0 8.0 0.00 0.00 0.00 52 723.7
20260906083518 62 173 5.0 9.0 0.00 0.00 0.00 53 723.8
20260906083243 62 181 5.0 9.0 0.00 0.00 0.00 53 723.8
20260906082520 62 169 6.0 10.0 0.00 0.00 0.00 53 723.8
20260906082014 62 168 5.0 10.0 0.00 0.00 0.00 53 723.8
20260906081515 62 177 4.0 8.0 0.00 0.00 0.00 53 723.8
20260906081014 62 186 5.0 9.0 0.00 0.00 0.00 53 723.8
20260906080516 62 198 5.0 9.0 0.00 0.00 0.00 54 723.8
20260906080014 62 167 4.0 9.0 0.00 0.00 0.00 54 723.8
20260906075515 62 188 4.0 8.0 0.00 0.00 0.00 54 723.8
20260906075233 62 207 4.0 8.0 0.00 0.00 0.00 54 723.8
20260906074514 62 190 4.0 6.0 0.00 0.00 0.00 54 723.8
20260906074235 62 190 4.0 7.0 0.00 0.00 0.00 54 723.8
20260906073734 62 194 5.0 7.0 0.00 0.00 0.00 55 723.7
20260906073014 62 192 5.0 7.0 0.00 0.00 0.00 55 723.8
20260906072514 62 200 5.0 7.0 0.00 0.00 0.00 54 723.8
20260906072235 62 204 5.0 8.0 0.00 0.00 0.00 53 723.8
20260906071515 62 184 5.0 8.0 0.00 0.00 0.00 53 723.8
20260906071238 62 213 5.0 7.0 0.00 0.00 0.00 53 723.9
20260906070514 62 217 5.0 7.0 0.00 0.00 0.00 53 723.9
20260906070014 62 223 5.0 8.0 0.00 0.00 0.00 54 723.9
20260906065512 62 218 5.0 8.0 0.00 0.00 0.00 54 723.8
20260906065011 62 242 5.0 8.0 0.00 0.00 0.00 55 723.9
20260906064510 61 242 6.0 9.0 0.00 0.00 0.00 56 723.8
20260906064010 61 234 7.0 11.0 0.00 0.00 0.00 56 723.9
20260906063952 61 211 8.0 11.0 0.00 0.00 0.00 56 723.9
20260906063010 61 221 7.0 11.0 0.00 0.00 0.00 56 723.9
20260906062735 61 217 7.0 10.0 0.00 0.00 0.00 56 723.9
20260906062010 61 205 8.0 13.0 0.00 0.00 0.00 56 723.9
20260906061510 61 219 9.0 13.0 0.00 0.00 0.00 56 723.8
20260906061010 61 211 8.0 11.0 0.00 0.00 0.00 56 723.8
20260906060509 62 200 7.0 6.0 0.00 0.00 0.00 57 723.9
20260906055639 62 193 7.0 11.0 0.00 0.00 0.00 54 723.9
20260906055139 62 186 7.0 11.0 0.00 0.00 0.00 53 724.0
20260906054639 62 188 7.0 11.0 0.00 0.00 0.00 52 723.9
20260906054400 63 172 7.0 11.0 0.00 0.00 0.00 51 723.9
20260906053911 63 199 7.0 12.0 0.00 0.00 0.00 50 723.9
20260906053135 63 211 7.0 12.0 0.00 0.00 0.00 50 723.9
20260906052636 63 200 8.0 12.0 0.00 0.00 0.00 50 724.0
20260906052136 63 182 8.0 12.0 0.00 0.00 0.00 49 724.0
20260906051635 63 191 9.0 14.0 0.00 0.00 0.00 51 724.1
20260906051135 63 201 9.0 14.0 0.00 0.00 0.00 50 724.1
20260906050635 63 191 9.0 14.0 0.00 0.00 0.00 51 724.2
20260906050134 63 187 8.0 13.0 0.00 0.00 0.00 53 724.2
20260906045635 63 198 8.0 13.0 0.00 0.00 0.00 54 724.2
20260906045135 63 188 8.0 14.0 0.00 0.00 0.00 53 724.2
20260906045117 63 184 10.0 16.0 0.00 0.00 0.00 54 724.2
20260906044355 63 194 11.0 16.0 0.00 0.00 0.00 54 724.2
20260906043855 63 146 10.0 19.0 0.00 0.00 0.00 54 724.2
20260906043131 62 198 10.0 19.0 0.00 0.00 0.00 55 724.1
20260906042632 62 185 10.0 18.0 0.00 0.00 0.00 56 724.2
20260906042132 62 186 9.0 17.0 0.00 0.00 0.00 58 724.3
20260906041631 62 190 9.0 14.0 0.00 0.00 0.00 59 724.3
20260906041133 62 188 10.0 19.0 0.00 0.00 0.00 59 724.2
20260906040857 62 177 10.0 19.0 0.00 0.00 0.00 59 724.2
20260906040127 61 199 7.0 13.0 0.00 0.00 0.00 63 724.3
20260906035626 61 173 5.0 10.0 0.00 0.00 0.00 65 724.4
20260906035332 62 153 7.0 13.0 0.00 0.00 0.00 63 724.4
20260906035218 61 187 6.0 11.0 0.00 0.00 0.00 65 724.4
20260906034127 62 157 8.0 14.0 0.00 0.00 0.00 62 724.4
20260906033851 62 166 9.0 17.0 0.00 0.00 0.00 61 724.4
20260906033127 62 155 9.0 17.0 0.00 0.00 0.00 61 724.3
20260906032629 62 177 8.0 15.0 0.00 0.00 0.00 63 724.3
20260906032346 62 161 8.0 16.0 0.00 0.00 0.00 62 724.4
20260906031623 62 156 9.0 16.0 0.00 0.00 0.00 62 724.3
20260906031344 63 142 7.0 15.0 0.00 0.00 0.00 61 724.3
20260906030844 63 153 8.0 15.0 0.00 0.00 0.00 61 724.2
20260906030124 63 153 8.0 15.0 0.00 0.00 0.00 60 724.2
20260906025623 63 117 6.0 14.0 0.00 0.00 0.00 58 724.2
20260906025122 63 112 5.0 10.0 0.00 0.00 0.00 56 724.0
20260906024623 63 110 5.0 10.0 0.00 0.00 0.00 52 724.0
20260906024123 64 48 7.0 11.0 0.00 0.00 0.00 51 723.9
20260906023625 64 54 9.0 17.0 0.00 0.00 0.00 50 723.9
20260906023118 65 47 11.0 19.0 0.00 0.00 0.00 48 723.9
20260906022619 65 46 9.0 19.0 0.00 0.00 0.00 46 723.8
20260906022119 66 42 7.0 15.0 0.00 0.00 0.00 44 723.7
20260906021619 66 46 8.0 13.0 0.00 0.00 0.00 44 723.7
20260906021119 66 25 7.0 13.0 0.00 0.00 0.00 45 723.6
20260906020620 66 64 5.0 12.0 0.00 0.00 0.00 45 723.6
20260906020119 66 42 5.0 10.0 0.00 0.00 0.00 44 723.5
20260906015619 66 22 6.0 10.0 0.00 0.00 0.00 44 723.5
20260906015120 66 34 5.0 9.0 0.00 0.00 0.00 44 723.6
20260906014842 66 24 5.0 9.0 0.00 0.00 0.00 45 723.5
20260906014120 66 54 4.0 9.0 0.00 0.00 0.00 45 723.5
20260906013618 66 38 3.0 8.0 0.00 0.00 0.00 45 723.5
20260906013120 66 355 4.0 7.0 0.00 0.00 0.00 45 723.6
20260906012618 66 29 4.0 7.0 0.00 0.00 0.00 45 723.6
20260906012121 66 21 4.0 6.0 0.00 0.00 0.00 45 723.6
20260906011620 66 21 4.0 6.0 0.00 0.00 0.00 44 723.6
20260906011118 66 0 4.0 6.0 0.00 0.00 0.00 44 723.6
20260906010619 67 28 5.0 7.0 0.00 0.00 0.00 44 723.6
20260906010117 67 36 4.0 7.0 0.00 0.00 0.00 43 723.6
20260906005616 67 21 3.0 6.0 0.00 0.00 0.00 43 723.6
20260906005116 67 9 3.0 5.0 0.00 0.00 0.00 43 723.7
20260906004616 67 57 4.0 8.0 0.00 0.00 0.00 43 723.8
20260906004112 67 192 4.0 8.0 0.00 0.00 0.00 45 723.8
20260906003829 68 166 3.0 6.0 0.00 0.00 0.00 45 723.7
20260906003327 69 163 3.0 6.0 0.00 0.00 0.00 46 723.8
20260906002610 69 132 2.0 7.0 0.00 0.00 0.00 41 723.8
20260906002111 70 281 1.0 7.0 0.00 0.00 0.00 41 723.8
20260906001609 70 87 2.0 4.0 0.00 0.00 0.00 41 723.8
20260906001322 70 100 4.0 9.0 0.00 0.00 0.00 40 723.7
20260906000601 71 84 3.0 9.0 0.00 0.00 0.00 40 723.7
20260906000059 71 90 2.0 8.0 0.00 0.00 0.00 40 723.7
20260905235559 71 0 3.0 6.0 0.00 0.00 0.00 40 723.7
20260905235059 71 89 4.0 8.0 0.00 0.00 0.00 40 723.7
20260905234557 71 88 3.0 8.0 0.00 0.00 0.00 40 723.8
20260905234056 71 113 3.0 9.0 0.00 0.00 0.00 41 723.7
20260905233555 70 85 5.0 9.0 0.00 0.00 0.00 40 723.7
20260905233053 70 84 5.0 13.0 0.00 0.00 0.00 40 723.6
20260905232810 70 63 5.0 13.0 0.00 0.00 0.00 41 723.6
20260905232048 70 28 4.0 9.0 0.00 0.00 0.00 40 723.6
20260905231547 70 62 3.0 5.0 0.00 0.00 0.00 43 723.6
20260905231040 69 33 4.0 7.0 0.00 0.00 0.00 44 723.6
20260905230540 68 5 4.0 7.0 0.00 0.00 0.00 44 723.7
20260905230040 68 337 4.0 7.0 0.00 0.00 0.00 44 723.6
20260905225759 67 10 5.0 9.0 0.00 0.00 0.00 45 723.6
20260905225040 67 0 6.0 10.0 0.00 0.00 0.00 44 723.7
20260905224541 67 331 5.0 10.0 0.00 0.00 0.00 45 723.6
20260905224040 67 355 5.0 9.0 0.00 0.00 0.00 45 723.7
20260905223539 68 10 4.0 9.0 0.00 0.00 0.00 45 723.7
20260905223038 68 13 4.0 8.0 0.00 0.00 0.00 44 723.7
20260905222539 69 355 5.0 10.0 0.00 0.00 0.00 44 723.7
20260905222035 69 55 6.0 10.0 0.00 0.00 0.00 42 723.7
20260905221532 69 67 5.0 9.0 0.00 0.00 0.00 41 723.6
20260905221033 69 41 5.0 9.0 0.00 0.00 0.00 41 723.6
20260905220532 70 5 5.0 11.0 0.00 0.00 0.00 41 723.7
20260905220032 70 44 6.0 11.0 0.00 0.00 0.00 41 723.7
20260905215752 70 31 6.0 11.0 0.00 0.00 0.00 42 723.8
20260905215029 71 5 6.0 12.0 0.00 0.00 0.00 41 723.8
20260905214527 71 15 6.0 12.0 0.00 0.00 0.00 43 723.8
20260905214026 70 31 5.0 9.0 0.00 0.00 0.00 42 723.8